Winder, GA

6:17 PM EDT on July 21, 2017 (GMT -0400)
Winder-Barrow

Weather History for KWDR - March, 2013

Change the Weather History Date:

Friday, March 29, 2013

  Actual Average Record
Temperature  
Mean Temperature 52 °F -  
Max Temperature 68 °F 69 °F 84 °F (1989)
Min Temperature 35 °F 45 °F 27 °F (1966)
Degree Days  
Heating Degree Days 14    
Growing Degree Days 2 (Base 50)    
Moisture  
Dew Point 30 °F    
Average Humidity 46    
Maximum Humidity 87    
Minimum Humidity 24    
Precipitation  
Precipitation 0.00 in - - ()
Sea Level Pressure  
Sea Level Pressure 30.30 in    
Wind  
Wind Speed 2 mph (NNE)    
Max Wind Speed 7 mph    
Max Gust Speed -    
Visibility 10 miles    
Events      
Averages and records for this station are not official NWS values.
T = Trace of Precipitation, MM = Missing Value Source: NWS Daily Summary

Daily Weather History Graph

Daily Weather History Graph

Search for Another Location

Airport or City:

Trip Planner

Search our weather history database for the weather conditions in past years. The results will help you decide how hot, cold, wet, or windy it might be!

Date:

Astronomy

Mar. 29, 2013 Rise Set
Actual Time 7:25 AM EDT 7:53 PM EDT
Civil Twilight 7:00 AM EDT 8:18 PM EDT
Nautical Twilight 6:31 AM EDT 8:47 PM EDT
Astronomical Twilight 6:01 AM EDT 9:17 PM EDT
Moon 10:42 PM EDT (3/29) 8:41 AM EDT (3/29)
Length of Visible Light 13h 17m
Length of Day
12h 27m
Waning Gibbous, 93% of the Moon is Illuminated
Mar 29
Waning Gibbous
Apr 3
Last Quarter
Apr 10
New
Apr 18
First Quarter
Apr 25
Full

Hourly Weather History & Observations

Time (EDT) Temp. Windchill Dew Point Humidity Pressure Visibility Wind Dir Wind Speed Gust Speed Precip Events Conditions
12:15 AM 46.4 °F 45.2 °F 32.0 °F 57% 30.33 in 10.0 mi NW 3.5 mph - N/A   Clear
12:35 AM 46.4 °F 43.5 °F 32.0 °F 57% 30.33 in 10.0 mi NW 5.8 mph - N/A   Clear
12:55 AM 48.2 °F - 32.0 °F 54% 30.33 in 10.0 mi NW 5.8 mph - N/A   Clear
1:15 AM 48.2 °F - 30.2 °F 50% 30.33 in 10.0 mi NW 5.8 mph - N/A   Clear
1:35 AM 42.8 °F 39.3 °F 32.0 °F 66% 30.33 in 10.0 mi NNW 5.8 mph - N/A   Clear
1:55 AM 42.8 °F 41.1 °F 32.0 °F 66% 30.33 in 10.0 mi NNW 3.5 mph - N/A   Clear
2:15 AM 42.8 °F 41.1 °F 32.0 °F 66% 30.33 in 10.0 mi NW 3.5 mph - N/A   Clear
2:35 AM 41.0 °F - 32.0 °F 70% 30.33 in 10.0 mi Calm Calm - N/A   Clear
2:55 AM 41.0 °F 39.0 °F 32.0 °F 70% 30.33 in 10.0 mi NNW 3.5 mph - N/A   Clear
3:15 AM 41.0 °F - 32.0 °F 70% 30.33 in 10.0 mi Calm Calm - N/A   Clear
3:35 AM 41.0 °F 39.0 °F 32.0 °F 70% 30.34 in 10.0 mi NNW 3.5 mph - N/A   Clear
3:55 AM 42.8 °F - 30.2 °F 61% 30.34 in 10.0 mi Calm Calm - N/A   Clear
4:15 AM 41.0 °F - 32.0 °F 70% 30.33 in 10.0 mi Calm Calm - N/A   Scattered Clouds
4:35 AM 42.8 °F - 32.0 °F 66% 30.33 in 10.0 mi Calm Calm - N/A   Mostly Cloudy
4:55 AM 41.0 °F - 32.0 °F 70% 30.33 in 10.0 mi Calm Calm - N/A   Scattered Clouds
5:15 AM 39.2 °F - 32.0 °F 75% 30.33 in 10.0 mi Calm Calm - N/A   Clear
5:35 AM 37.4 °F - 32.0 °F 81% 30.33 in 10.0 mi Calm Calm - N/A   Clear
5:55 AM 37.4 °F - 32.0 °F 81% 30.34 in 10.0 mi Calm Calm - N/A   Clear
6:15 AM 37.4 °F - 32.0 °F 81% 30.34 in 10.0 mi Calm Calm - N/A   Clear
6:35 AM 35.6 °F - 32.0 °F 87% 30.34 in 10.0 mi Calm Calm - N/A   Clear
6:55 AM 37.4 °F - 32.0 °F 81% 30.35 in 10.0 mi Calm Calm - N/A   Clear
7:15 AM 37.4 °F - 32.0 °F 81% 30.35 in 10.0 mi Calm Calm - N/A   Clear
7:35 AM 37.4 °F - 32.0 °F 81% 30.36 in 10.0 mi Calm Calm - N/A   Scattered Clouds
7:55 AM 37.4 °F - 32.0 °F 81% 30.36 in 10.0 mi Calm Calm - N/A   Scattered Clouds
8:15 AM 37.4 °F - 32.0 °F 81% 30.36 in 10.0 mi Calm Calm - N/A   Clear
8:35 AM 41.0 °F - 33.8 °F 76% 30.36 in 10.0 mi Calm Calm - N/A   Clear
8:55 AM 44.6 °F - 33.8 °F 66% 30.37 in 10.0 mi Calm Calm - N/A   Clear
9:15 AM 46.4 °F - 32.0 °F 57% 30.37 in 10.0 mi Calm Calm - N/A   Clear
9:35 AM 50.0 °F - 32.0 °F 50% 30.37 in 10.0 mi Calm Calm - N/A   Clear
9:55 AM 51.8 °F - 28.4 °F 41% 30.38 in 10.0 mi SE 6.9 mph - N/A   Clear
10:15 AM 53.6 °F - 24.8 °F 33% 30.37 in 10.0 mi ESE 3.5 mph - N/A   Clear
10:35 AM 55.4 °F - 26.6 °F 33% 30.37 in 10.0 mi SE 3.5 mph - N/A   Clear
10:55 AM 55.4 °F - 26.6 °F 33% 30.37 in 10.0 mi South 3.5 mph - N/A   Clear
11:15 AM 59.0 °F - 24.8 °F 27% 30.37 in 10.0 mi Calm Calm - N/A   Clear
11:35 AM 59.0 °F - 26.6 °F 29% 30.37 in 10.0 mi Calm Calm - N/A   Clear
11:55 AM 59.0 °F - 24.8 °F 27% 30.37 in 10.0 mi Calm Calm - N/A   Clear
12:15 PM 60.8 °F - 24.8 °F 25% 30.36 in 10.0 mi Calm Calm - N/A   Mostly Cloudy
12:35 PM 60.8 °F - 24.8 °F 25% 30.35 in 10.0 mi Calm Calm - N/A   Overcast
12:55 PM 60.8 °F - 24.8 °F 25% 30.34 in 10.0 mi Calm Calm - N/A   Scattered Clouds
1:15 PM 62.6 °F - 26.6 °F 26% 30.33 in 7.0 mi Calm Calm - N/A   Mostly Cloudy
1:35 PM 62.6 °F - 26.6 °F 26% 30.32 in 10.0 mi NW 3.5 mph - N/A   Overcast
1:55 PM 64.4 °F - 26.6 °F 24% 30.31 in 10.0 mi Calm Calm - N/A   Mostly Cloudy
2:15 PM 64.4 °F - 28.4 °F 26% 30.30 in 10.0 mi Calm Calm - N/A   Scattered Clouds
2:35 PM 64.4 °F - 26.6 °F 24% 30.29 in 10.0 mi Calm Calm - N/A   Mostly Cloudy
2:55 PM 64.4 °F - 28.4 °F 26% 30.28 in 10.0 mi Calm Calm - N/A   Mostly Cloudy
3:15 PM 66.2 °F - 28.4 °F 24% 30.26 in 10.0 mi West 6.9 mph - N/A   Scattered Clouds
3:35 PM 66.2 °F - 28.4 °F 24% 30.25 in 10.0 mi WNW 6.9 mph - N/A   Scattered Clouds
3:55 PM 64.4 °F - 28.4 °F 26% 30.24 in 10.0 mi South 3.5 mph - N/A   Clear
4:15 PM 68.0 °F - 30.2 °F 24% 30.24 in 10.0 mi Calm Calm - N/A   Mostly Cloudy
4:35 PM 68.0 °F - 30.2 °F 24% 30.23 in 10.0 mi NW 5.8 mph - N/A   Mostly Cloudy
4:55 PM 66.2 °F - 30.2 °F 26% 30.23 in 10.0 mi Calm Calm - N/A   Mostly Cloudy
5:15 PM 66.2 °F - 30.2 °F 26% 30.23 in 10.0 mi West 5.8 mph - N/A   Overcast
5:35 PM 66.2 °F - 30.2 °F 26% 30.23 in 10.0 mi West 5.8 mph - N/A   Overcast
5:55 PM 66.2 °F - 30.2 °F 26% 30.22 in 10.0 mi Calm Calm - N/A   Overcast
6:15 PM 64.4 °F - 30.2 °F 28% 30.21 in 10.0 mi Calm Calm - N/A   Overcast
6:35 PM 66.2 °F - 32.0 °F 28% 30.21 in 10.0 mi Calm Calm - N/A   Overcast
6:55 PM 64.4 °F - 32.0 °F 30% 30.22 in 10.0 mi Calm Calm - N/A   Overcast
7:15 PM 64.4 °F - 32.0 °F 30% 30.22 in 10.0 mi NE 4.6 mph - N/A   Overcast
7:35 PM 62.6 °F - 32.0 °F 32% 30.22 in 10.0 mi NE 3.5 mph - N/A   Overcast
7:55 PM 62.6 °F - 32.0 °F 32% 30.22 in 10.0 mi NE 3.5 mph - N/A   Overcast
8:15 PM 62.6 °F - 32.0 °F 32% 30.23 in 10.0 mi ENE 3.5 mph - N/A   Overcast
8:35 PM 60.8 °F - 32.0 °F 34% 30.23 in 10.0 mi NE 5.8 mph - N/A   Overcast
8:55 PM 62.6 °F - 32.0 °F 32% 30.23 in 10.0 mi NE 3.5 mph - N/A   Overcast
9:15 PM 60.8 °F - 32.0 °F 34% 30.23 in 10.0 mi NNE 3.5 mph - N/A   Mostly Cloudy
9:35 PM 60.8 °F - 32.0 °F 34% 30.24 in 10.0 mi East 6.9 mph - N/A   Mostly Cloudy
9:55 PM 59.0 °F - 32.0 °F 36% 30.25 in 10.0 mi East 5.8 mph - N/A   Scattered Clouds
10:15 PM 59.0 °F - 32.0 °F 36% 30.25 in 10.0 mi East 4.6 mph - N/A   Mostly Cloudy
10:35 PM 57.2 °F - 32.0 °F 38% 30.25 in 10.0 mi East 3.5 mph - N/A   Mostly Cloudy
10:55 PM 55.4 °F - 32.0 °F 41% 30.25 in 10.0 mi Calm Calm - N/A   Overcast
11:15 PM 55.4 °F - 32.0 °F 41% 30.25 in 10.0 mi Calm Calm - N/A   Overcast
11:35 PM 55.4 °F - 32.0 °F 41% 30.25 in 10.0 mi East 3.5 mph - N/A   Overcast
11:55 PM 55.4 °F - 32.0 °F 41% 30.24 in 10.0 mi ESE 3.5 mph - N/A   Overcast